This is the latest recevied weather packets stored in our database for station/object DH1NAI-6. If no packets are shown the sender has not sent any weather packets the latest 10 day(s).
| Time | Temp. | Humidity | Pressure | Rain* | Wind** | Luminosity | Snow |
|---|---|---|---|---|---|---|---|
| 1778168012 | 7.22° C | 99% | 1011.8 hPa | 1.02 mm | - | 19 W/m² | - |
| 1778167409 | 7.22° C | 99% | 1011.9 hPa | 1.02 mm | - | 10 W/m² | - |
| 1778166800 | 7.78° C | 99% | 1011.6 hPa | 1.02 mm | - | 7 W/m² | - |
| 1778166193 | 7.78° C | 99% | 1011.7 hPa | 1.02 mm | - | 11 W/m² | - |
| 1778165584 | 7.78° C | 99% | 1011.8 hPa | 1.02 mm | - | 12 W/m² | - |
| 1778164977 | 7.78° C | 99% | 1011.7 hPa | 1.02 mm | - | 11 W/m² | - |
| 1778164368 | 8.33° C | 99% | 1011.5 hPa | 1.02 mm | - | 11 W/m² | - |
| 1778163761 | 8.33° C | 99% | 1011.4 hPa | 1.02 mm | - | 15 W/m² | - |
| 1778163152 | 8.33° C | 99% | 1011.3 hPa | 1.02 mm | - | 14 W/m² | - |
| 1778162545 | 8.33° C | 99% | 1011.3 hPa | 0 mm | - | 20 W/m² | - |
| 1778161936 | 8.33° C | 99% | 1011.4 hPa | 1.02 mm | - | 28 W/m² | - |
| 1778161329 | 8.33° C | 99% | 1011.3 hPa | 0 mm | - | 20 W/m² | - |
| 1778160720 | 8.33° C | 99% | 1011.2 hPa | 0 mm | - | 30 W/m² | - |
| 1778160113 | 8.33° C | 99% | 1011.2 hPa | 0 mm | - | 31 W/m² | - |
| 1778159504 | 8.33° C | 99% | 1010.8 hPa | 0 mm | - | 18 W/m² | - |
| 1778158897 | 8.89° C | 99% | 1010.8 hPa | 0 mm | - | 12 W/m² | - |
| 1778158288 | 9.44° C | 99% | 1010.7 hPa | 0 mm | - | 19 W/m² | - |
| 1778157681 | 9.44° C | 99% | 1010.6 hPa | 0 mm | - | 54 W/m² | - |
| 1778157072 | 9.44° C | 99% | 1010.4 hPa | 0 mm | - | 43 W/m² | - |
| 1778156464 | 8.89° C | 99% | 1010.3 hPa | 0 mm | - | 25 W/m² | - |
| 1778155856 | 9.44° C | 99% | 1010.3 hPa | 0 mm | - | 67 W/m² | - |
| 1778155248 | 9.44° C | 99% | 1010.2 hPa | 0 mm | - | 45 W/m² | - |
| 1778154640 | 8.89° C | 99% | 1010.1 hPa | 1.02 mm | - | 56 W/m² | - |
| 1778154033 | 9.44° C | 99% | 1010.2 hPa | 0 mm | - | 33 W/m² | - |
| 1778153424 | 8.89° C | 99% | 1009.9 hPa | 0 mm | - | 53 W/m² | - |
* Rain latest hour (hover to see other rain measurements)
** Current wind speed in m/s (hover to see current wind gust speed)